FNE1002 SPJC-SASA

Flight info

Callsign FNE1002
Flight time 2h 24m
Altitude 41000
Route ITAV3F/SCO SCO UL550 LOA UM789 JUJ
Aircraft B738/M-SDE2E3FGHIRWXY/LB1

Departure

Time 2026-05-04 22:27
Airport Jorge Chávez International Airport (SPJC)

Arrival

Time 2026-05-05 00:52
Airport Martín Miguel de Güemes International Airport (SASA)
Time Latitude Longitude Altitude Speed Heading
2026-05-04 22:25 -12.00631 -77.13241 34 ft 1 kts 270°
2026-05-04 22:26 -12.00639 -77.13263 34 ft 5 kts 248°
2026-05-04 22:26 -12.00655 -77.13303 33 ft 7 kts 248°
2026-05-04 22:26 -12.00688 -77.13347 32 ft 8 kts 203°
2026-05-04 22:26 -12.00764 -77.13331 34 ft 16 kts 154°
2026-05-04 22:27 -12.01106 -77.13162 34 ft 111 kts 153°
2026-05-04 22:27 -12.02100 -77.12710 370 ft 188 kts 157°
2026-05-04 22:27 -12.03376 -77.12130 1754 ft 198 kts 159°
2026-05-04 22:27 -12.04580 -77.11652 3429 ft 192 kts 161°
2026-05-04 22:28 -12.05936 -77.11393 4422 ft 212 kts 178°
2026-05-04 22:28 -12.07508 -77.11640 4846 ft 251 kts 200°
2026-05-04 22:28 -12.09265 -77.12300 5412 ft 281 kts 201°
2026-05-04 22:28 -12.11101 -77.13005 6575 ft 283 kts 202°
2026-05-04 22:29 -12.12946 -77.13717 7722 ft 286 kts 202°
2026-05-04 22:29 -12.14823 -77.14441 8825 ft 291 kts 201°
2026-05-04 22:29 -12.16737 -77.15179 9938 ft 295 kts 201°
2026-05-04 22:29 -12.18722 -77.15943 10753 ft 311 kts 202°
2026-05-04 22:30 -12.20820 -77.16751 11118 ft 337 kts 201°
2026-05-04 22:30 -12.23042 -77.17605 11899 ft 345 kts 201°
2026-05-04 22:30 -12.25282 -77.18466 12883 ft 347 kts 200°
2026-05-04 22:30 -12.27568 -77.19343 13861 ft 350 kts 199°
2026-05-04 22:31 -12.29946 -77.19844 14541 ft 358 kts 179°
2026-05-04 22:31 -12.32469 -77.19526 15317 ft 363 kts 168°
2026-05-04 22:31 -12.34886 -77.19018 16083 ft 368 kts 166°
2026-05-04 22:31 -12.37450 -77.18436 16880 ft 373 kts 166°
2026-05-04 22:32 -12.39999 -77.17852 17649 ft 379 kts 165°
2026-05-04 22:32 -12.42597 -77.17264 18393 ft 384 kts 165°
2026-05-04 22:32 -12.45236 -77.16677 19084 ft 388 kts 166°
2026-05-04 22:32 -12.47864 -77.16101 19805 ft 391 kts 166°
2026-05-04 22:33 -12.50536 -77.15522 20494 ft 395 kts 166°
2026-05-04 22:33 -12.53238 -77.14939 21182 ft 399 kts 166°
2026-05-04 22:33 -12.55969 -77.14351 21855 ft 402 kts 167°
2026-05-04 22:33 -12.58735 -77.13757 22521 ft 406 kts 167°
2026-05-04 22:34 -12.61479 -77.13167 23170 ft 410 kts 167°
2026-05-04 22:34 -12.64329 -77.12554 23767 ft 414 kts 167°
2026-05-04 22:34 -12.67155 -77.11946 24231 ft 419 kts 167°
2026-05-04 22:34 -12.70033 -77.11327 24699 ft 424 kts 167°
2026-05-04 22:35 -12.72896 -77.10711 25147 ft 429 kts 167°
2026-05-04 22:35 -12.75842 -77.10077 25614 ft 433 kts 167°
2026-05-04 22:35 -12.78813 -77.09437 26071 ft 437 kts 167°
2026-05-04 22:35 -12.81802 -77.08793 26518 ft 442 kts 167°
2026-05-04 22:36 -12.84844 -77.08138 26911 ft 448 kts 168°
2026-05-04 22:36 -12.87912 -77.07477 27344 ft 452 kts 168°
2026-05-04 22:36 -12.90976 -77.06817 27792 ft 456 kts 168°
2026-05-04 22:36 -12.94090 -77.06145 28213 ft 460 kts 168°
2026-05-04 22:37 -12.97248 -77.05464 28633 ft 464 kts 168°
2026-05-04 22:37 -13.00412 -77.04781 29025 ft 468 kts 168°
2026-05-04 22:37 -13.03595 -77.04094 29441 ft 472 kts 167°
2026-05-04 22:37 -13.06701 -77.03003 29807 ft 475 kts 151°
2026-05-04 22:38 -13.09395 -77.01035 30144 ft 477 kts 134°
2026-05-04 22:38 -13.11588 -76.98511 30512 ft 477 kts 128°
2026-05-04 22:38 -13.13717 -76.95855 30851 ft 479 kts 127°
2026-05-04 22:38 -13.15820 -76.93182 31155 ft 483 kts 127°
2026-05-04 22:39 -13.17944 -76.90487 31389 ft 488 kts 127°
2026-05-04 22:39 -13.20095 -76.87784 31657 ft 492 kts 128°
2026-05-04 22:39 -13.22289 -76.85052 32022 ft 493 kts 128°
2026-05-04 22:39 -13.24481 -76.82343 32398 ft 494 kts 128°
2026-05-04 22:40 -13.26647 -76.79675 32677 ft 496 kts 128°
2026-05-04 22:40 -13.28875 -76.76935 32938 ft 500 kts 128°
2026-05-04 22:40 -13.31087 -76.74214 33312 ft 500 kts 128°
2026-05-04 22:40 -13.33329 -76.71455 33794 ft 498 kts 128°
2026-05-04 22:41 -13.35534 -76.68740 34231 ft 496 kts 128°
2026-05-04 22:41 -13.37729 -76.66035 34606 ft 496 kts 128°
2026-05-04 22:41 -13.39936 -76.63313 34986 ft 495 kts 128°
2026-05-04 22:41 -13.42169 -76.60557 35404 ft 493 kts 128°
2026-05-04 22:42 -13.44360 -76.57853 35822 ft 492 kts 128°
2026-05-04 22:42 -13.46522 -76.55183 36208 ft 491 kts 128°
2026-05-04 22:42 -13.48700 -76.52492 36578 ft 491 kts 128°
2026-05-04 22:42 -13.50876 -76.49803 36874 ft 492 kts 129°
2026-05-04 22:43 -13.53070 -76.47092 37182 ft 493 kts 129°
2026-05-04 22:43 -13.55263 -76.44381 37637 ft 490 kts 129°
2026-05-04 22:43 -13.57440 -76.41689 38119 ft 487 kts 129°
2026-05-04 22:43 -13.59590 -76.39029 38495 ft 487 kts 129°
2026-05-04 22:44 -13.61751 -76.36354 38786 ft 487 kts 129°
2026-05-04 22:44 -13.63931 -76.33655 39101 ft 486 kts 129°
2026-05-04 22:44 -13.66090 -76.30982 39477 ft 483 kts 129°
2026-05-04 22:44 -13.68221 -76.28342 39866 ft 480 kts 129°
2026-05-04 22:45 -13.70336 -76.25721 40177 ft 479 kts 129°
2026-05-04 22:45 -13.74681 -76.20511 40721 ft 479 kts 137°
2026-05-04 22:45 -13.77212 -76.18315 40975 ft 478 kts 142°
2026-05-04 22:46 -13.82580 -76.14200 40935 ft 482 kts 144°
2026-05-04 22:46 -13.87965 -76.10140 40927 ft 475 kts 144°
2026-05-04 22:47 -13.93223 -76.06065 40951 ft 475 kts 143°
2026-05-04 22:47 -13.98475 -76.01926 40948 ft 476 kts 143°
2026-05-04 22:48 -14.03741 -75.97756 40956 ft 478 kts 143°
2026-05-04 22:48 -14.08996 -75.93594 40950 ft 479 kts 143°
2026-05-04 22:49 -14.14323 -75.89377 40950 ft 479 kts 143°
2026-05-04 22:49 -14.19586 -75.85209 40946 ft 480 kts 143°
2026-05-04 22:50 -14.24882 -75.81012 40948 ft 481 kts 143°
2026-05-04 22:50 -14.29327 -75.77488 40950 ft 480 kts 143°
2026-05-04 22:51 -14.34581 -75.73320 40949 ft 480 kts 143°
2026-05-04 22:51 -14.39876 -75.69117 40964 ft 479 kts 143°
2026-05-04 22:52 -14.45178 -75.64906 40956 ft 479 kts 143°
2026-05-04 22:52 -14.50406 -75.60750 40952 ft 478 kts 143°
2026-05-04 22:53 -14.55714 -75.56529 40956 ft 477 kts 143°
2026-05-04 22:53 -14.60949 -75.52363 40969 ft 477 kts 143°
2026-05-04 22:54 -14.66210 -75.48174 40977 ft 476 kts 143°
2026-05-04 22:54 -14.71416 -75.44026 40955 ft 476 kts 143°
2026-05-04 22:55 -14.76642 -75.39860 40974 ft 476 kts 143°
2026-05-04 22:55 -14.81908 -75.35659 40956 ft 475 kts 143°
2026-05-04 22:56 -14.87153 -75.31472 40948 ft 476 kts 143°
2026-05-04 22:56 -14.92405 -75.27278 40962 ft 475 kts 143°
2026-05-04 22:57 -14.97641 -75.23093 40982 ft 475 kts 143°
2026-05-04 22:57 -15.02826 -75.18946 40967 ft 475 kts 143°
2026-05-04 22:58 -15.08051 -75.14765 40971 ft 475 kts 143°
2026-05-04 22:58 -15.13310 -75.10553 40990 ft 475 kts 143°
2026-05-04 22:59 -15.18501 -75.06394 40982 ft 476 kts 143°
2026-05-04 22:59 -15.23775 -75.02165 40980 ft 476 kts 143°
2026-05-04 23:00 -15.28978 -74.97991 40983 ft 476 kts 143°
2026-05-04 23:00 -15.34197 -74.93801 40979 ft 476 kts 143°
2026-05-04 23:01 -15.39435 -74.89593 41001 ft 476 kts 143°
2026-05-04 23:01 -15.44673 -74.85382 40983 ft 476 kts 143°
2026-05-04 23:02 -15.49913 -74.81167 40979 ft 477 kts 143°
2026-05-04 23:02 -15.55126 -74.76971 40984 ft 477 kts 143°
2026-05-04 23:03 -15.60366 -74.72750 40982 ft 477 kts 143°
2026-05-04 23:03 -15.65660 -74.68483 40978 ft 478 kts 143°
2026-05-04 23:04 -15.70872 -74.64279 40985 ft 478 kts 143°
2026-05-04 23:04 -15.76124 -74.60041 40982 ft 478 kts 143°
2026-05-04 23:05 -15.81390 -74.55787 40980 ft 478 kts 143°
2026-05-04 23:05 -15.86631 -74.51552 40983 ft 479 kts 143°
2026-05-04 23:06 -15.91878 -74.47308 40980 ft 479 kts 143°
2026-05-04 23:06 -15.97131 -74.43057 40982 ft 479 kts 143°
2026-05-04 23:07 -16.02367 -74.38817 40978 ft 479 kts 143°
2026-05-04 23:07 -16.07628 -74.34554 40976 ft 479 kts 143°
2026-05-04 23:08 -16.12884 -74.30290 40980 ft 479 kts 143°
2026-05-04 23:08 -16.18164 -74.26006 40978 ft 479 kts 143°
2026-05-04 23:09 -16.23386 -74.21765 40977 ft 479 kts 143°
2026-05-04 23:09 -16.28631 -74.17503 40981 ft 479 kts 143°
2026-05-04 23:10 -16.33900 -74.13218 40977 ft 479 kts 143°
2026-05-04 23:10 -16.39136 -74.08956 40978 ft 479 kts 143°
2026-05-04 23:11 -16.44408 -74.04662 40982 ft 479 kts 143°
2026-05-04 23:11 -16.49611 -74.00422 40977 ft 479 kts 143°
2026-05-04 23:12 -16.54888 -73.96118 40982 ft 479 kts 143°
2026-05-04 23:12 -16.60102 -73.91863 40981 ft 479 kts 143°
2026-05-04 23:13 -16.65344 -73.87581 40983 ft 479 kts 143°
2026-05-04 23:13 -16.70592 -73.83290 40983 ft 479 kts 143°
2026-05-04 23:14 -16.75859 -73.78979 40987 ft 479 kts 143°
2026-05-04 23:14 -16.81058 -73.74721 40980 ft 479 kts 143°
2026-05-04 23:15 -16.86308 -73.70418 40981 ft 479 kts 143°
2026-05-04 23:15 -16.91570 -73.66103 40981 ft 479 kts 143°
2026-05-04 23:16 -16.96789 -73.61819 40986 ft 479 kts 143°
2026-05-04 23:16 -17.02023 -73.57520 40982 ft 479 kts 143°
2026-05-04 23:17 -17.07233 -73.53238 40989 ft 479 kts 143°
2026-05-04 23:17 -17.12461 -73.48938 40983 ft 479 kts 143°
2026-05-04 23:18 -17.17716 -73.44612 40987 ft 479 kts 143°
2026-05-04 23:18 -17.22965 -73.40288 40987 ft 479 kts 143°
2026-05-04 23:19 -17.28173 -73.35995 40986 ft 479 kts 143°
2026-05-04 23:19 -17.33431 -73.31657 40984 ft 480 kts 143°
2026-05-04 23:20 -17.38666 -73.27335 40993 ft 479 kts 144°
2026-05-04 23:20 -17.43903 -73.23008 40984 ft 480 kts 144°
2026-05-04 23:21 -17.49166 -73.18655 40984 ft 480 kts 144°
2026-05-04 23:21 -17.54370 -73.14350 40983 ft 479 kts 144°
2026-05-04 23:22 -17.59611 -73.10009 40983 ft 479 kts 144°
2026-05-04 23:22 -17.64832 -73.05682 40989 ft 479 kts 144°
2026-05-04 23:23 -17.70057 -73.01349 40989 ft 479 kts 144°
2026-05-04 23:23 -17.75274 -72.97019 40983 ft 480 kts 144°
2026-05-04 23:24 -17.80515 -72.92666 40992 ft 480 kts 144°
2026-05-04 23:24 -17.85726 -72.88333 40988 ft 480 kts 144°
2026-05-04 23:25 -17.91001 -72.83945 40989 ft 480 kts 144°
2026-05-04 23:25 -17.96209 -72.79609 40989 ft 480 kts 144°
2026-05-04 23:26 -18.01417 -72.75269 40989 ft 479 kts 144°
2026-05-04 23:26 -18.06657 -72.70900 40986 ft 479 kts 144°
2026-05-04 23:27 -18.11860 -72.66557 40986 ft 479 kts 144°
2026-05-04 23:27 -18.17096 -72.62184 40986 ft 479 kts 144°
2026-05-04 23:28 -18.22307 -72.57827 40987 ft 479 kts 144°
2026-05-04 23:28 -18.27547 -72.53444 40985 ft 479 kts 144°
2026-05-04 23:29 -18.32758 -72.49080 40993 ft 479 kts 144°
2026-05-04 23:29 -18.37940 -72.44742 40989 ft 479 kts 144°
2026-05-04 23:30 -18.43179 -72.40358 40988 ft 479 kts 144°
2026-05-04 23:30 -18.48384 -72.35998 40989 ft 479 kts 144°
2026-05-04 23:31 -18.53627 -72.31602 40989 ft 479 kts 144°
2026-05-04 23:31 -18.58809 -72.27253 40989 ft 479 kts 144°
2026-05-04 23:32 -18.64042 -72.22858 40992 ft 480 kts 144°
2026-05-04 23:32 -18.69286 -72.18450 40990 ft 480 kts 144°
2026-05-04 23:33 -18.74508 -72.14056 40990 ft 480 kts 144°
2026-05-04 23:33 -18.79710 -72.09675 40989 ft 480 kts 144°
2026-05-04 23:34 -18.84947 -72.05262 40991 ft 481 kts 144°
2026-05-04 23:34 -18.90133 -72.00888 40998 ft 481 kts 144°
2026-05-04 23:35 -18.95365 -71.96472 40990 ft 481 kts 144°
2026-05-04 23:35 -19.00604 -71.92046 40989 ft 482 kts 144°
2026-05-04 23:36 -19.05823 -71.87633 40990 ft 482 kts 144°
2026-05-04 23:36 -19.11096 -71.83171 40989 ft 482 kts 144°
2026-05-04 23:37 -19.16291 -71.78772 40989 ft 482 kts 144°
2026-05-04 23:37 -19.21539 -71.74323 40995 ft 483 kts 144°
2026-05-04 23:38 -19.25911 -71.70614 40992 ft 483 kts 144°
2026-05-04 23:38 -19.32000 -71.65445 40992 ft 484 kts 144°
2026-05-04 23:39 -19.36400 -71.61707 40993 ft 484 kts 144°
2026-05-04 23:39 -19.41643 -71.57248 40992 ft 484 kts 144°
2026-05-04 23:40 -19.46876 -71.52794 40994 ft 484 kts 144°
2026-05-04 23:40 -19.52165 -71.48288 40997 ft 485 kts 144°
2026-05-04 23:41 -19.57406 -71.43820 40997 ft 485 kts 144°
2026-05-04 23:41 -19.62655 -71.39342 40994 ft 486 kts 144°
2026-05-04 23:42 -19.67898 -71.34864 40993 ft 486 kts 144°
2026-05-04 23:42 -19.73183 -71.30346 40995 ft 486 kts 144°
2026-05-04 23:43 -19.78448 -71.25842 40995 ft 486 kts 144°
2026-05-04 23:43 -19.83702 -71.21343 40996 ft 487 kts 144°
2026-05-04 23:44 -19.88968 -71.16830 40995 ft 487 kts 144°
2026-05-04 23:44 -19.94256 -71.12294 40995 ft 488 kts 144°
2026-05-04 23:45 -19.99519 -71.07775 40997 ft 488 kts 144°
2026-05-04 23:45 -20.04812 -71.03226 40997 ft 488 kts 144°
2026-05-04 23:46 -20.10102 -70.98676 41004 ft 489 kts 144°
2026-05-04 23:46 -20.15381 -70.94132 41003 ft 489 kts 144°
2026-05-04 23:47 -20.20666 -70.89578 41000 ft 490 kts 144°
2026-05-04 23:47 -20.25996 -70.84980 41007 ft 490 kts 144°
2026-05-04 23:48 -20.31244 -70.80449 40998 ft 490 kts 144°
2026-05-04 23:48 -20.36566 -70.75851 41004 ft 490 kts 144°
2026-05-04 23:49 -20.41857 -70.71273 41002 ft 490 kts 144°
2026-05-04 23:49 -20.47119 -70.66712 41002 ft 490 kts 144°
2026-05-04 23:50 -20.52425 -70.62107 40997 ft 491 kts 144°
2026-05-04 23:50 -20.57738 -70.57493 41000 ft 491 kts 144°
2026-05-04 23:51 -20.63021 -70.52903 40998 ft 491 kts 144°
2026-05-04 23:51 -20.68294 -70.48320 41012 ft 491 kts 145°
2026-05-04 23:52 -20.73601 -70.43703 41006 ft 491 kts 145°
2026-05-04 23:52 -20.78896 -70.39091 41006 ft 491 kts 145°
2026-05-04 23:53 -20.84174 -70.34490 41006 ft 491 kts 145°
2026-05-04 23:53 -20.89471 -70.29867 41007 ft 490 kts 145°
2026-05-04 23:54 -20.94735 -70.25268 41010 ft 490 kts 145°
2026-05-04 23:54 -21.00018 -70.20650 41008 ft 490 kts 145°
2026-05-04 23:55 -21.05314 -70.16023 41014 ft 490 kts 145°
2026-05-04 23:56 -21.13222 -70.09105 41017 ft 490 kts 145°
2026-05-04 23:56 -21.18533 -70.04452 41021 ft 490 kts 145°
2026-05-04 23:57 -21.23791 -69.99840 41012 ft 491 kts 145°
2026-05-04 23:57 -21.29080 -69.95197 41008 ft 491 kts 145°
2026-05-04 23:58 -21.34333 -69.90580 41002 ft 491 kts 145°
2026-05-04 23:58 -21.39649 -69.85904 41003 ft 491 kts 145°
2026-05-04 23:59 -21.44891 -69.81289 41003 ft 491 kts 145°
2026-05-04 23:59 -21.50183 -69.76625 40989 ft 490 kts 145°
2026-05-05 00:00 -21.55431 -69.71996 40994 ft 491 kts 145°
2026-05-05 00:00 -21.60745 -69.67303 40986 ft 490 kts 145°
2026-05-05 00:01 -21.65983 -69.62674 40982 ft 490 kts 145°
2026-05-05 00:01 -21.71267 -69.57998 40968 ft 490 kts 145°
2026-05-05 00:02 -21.76496 -69.53368 40967 ft 490 kts 145°
2026-05-05 00:02 -21.81806 -69.48661 40962 ft 491 kts 145°
2026-05-05 00:03 -21.87043 -69.44014 40980 ft 491 kts 145°
2026-05-05 00:03 -21.92320 -69.39327 40988 ft 492 kts 145°
2026-05-05 00:04 -21.97601 -69.34631 40975 ft 493 kts 145°
2026-05-05 00:04 -22.02881 -69.29932 40979 ft 493 kts 145°
2026-05-05 00:05 -22.08195 -69.25198 41023 ft 494 kts 145°
2026-05-05 00:05 -22.13455 -69.20507 41002 ft 494 kts 145°
2026-05-05 00:06 -22.18745 -69.15784 41000 ft 494 kts 145°
2026-05-05 00:06 -22.24046 -69.11046 41014 ft 494 kts 145°
2026-05-05 00:07 -22.29335 -69.06315 41013 ft 494 kts 145°
2026-05-05 00:07 -22.34641 -69.01564 41024 ft 494 kts 145°
2026-05-05 00:08 -22.39920 -68.96831 41027 ft 494 kts 145°
2026-05-05 00:08 -22.45166 -68.92124 41027 ft 493 kts 145°
2026-05-05 00:09 -22.50228 -68.87028 41346 ft 500 kts 133°
2026-05-05 00:09 -22.53957 -68.80717 41343 ft 504 kts 121°
2026-05-05 00:10 -22.57295 -68.74036 41259 ft 504 kts 121°
2026-05-05 00:10 -22.60671 -68.67372 41200 ft 503 kts 122°
2026-05-05 00:11 -22.64062 -68.60798 41120 ft 503 kts 122°
2026-05-05 00:11 -22.67496 -68.54154 41053 ft 504 kts 122°
2026-05-05 00:12 -22.70908 -68.47532 41052 ft 504 kts 122°
2026-05-05 00:12 -22.74312 -68.40915 41035 ft 505 kts 122°
2026-05-05 00:13 -22.77755 -68.34226 41030 ft 505 kts 122°
2026-05-05 00:13 -22.81144 -68.27634 41069 ft 504 kts 122°
2026-05-05 00:14 -22.84568 -68.20964 41041 ft 504 kts 122°
2026-05-05 00:14 -22.87972 -68.14323 41087 ft 505 kts 122°
2026-05-05 00:15 -22.91361 -68.07704 41089 ft 505 kts 122°
2026-05-05 00:15 -22.94781 -68.01015 41055 ft 505 kts 122°
2026-05-05 00:16 -22.98180 -67.94357 41056 ft 506 kts 122°
2026-05-05 00:16 -23.01587 -67.87675 41131 ft 506 kts 122°
2026-05-05 00:17 -23.04987 -67.80997 41100 ft 506 kts 122°
2026-05-05 00:17 -23.08383 -67.74320 41189 ft 506 kts 122°
2026-05-05 00:18 -23.11803 -67.67586 41176 ft 506 kts 122°
2026-05-05 00:18 -23.15180 -67.60926 41233 ft 506 kts 122°
2026-05-05 00:19 -23.18593 -67.54188 41288 ft 505 kts 122°
2026-05-05 00:19 -23.21949 -67.47552 41281 ft 505 kts 122°
2026-05-05 00:20 -23.25325 -67.40870 41262 ft 505 kts 122°
2026-05-05 00:20 -23.28714 -67.34151 41257 ft 505 kts 122°
2026-05-05 00:21 -23.32099 -67.27432 41263 ft 506 kts 122°
2026-05-05 00:21 -23.35482 -67.20705 41253 ft 507 kts 122°
2026-05-05 00:22 -23.38875 -67.13953 41229 ft 508 kts 122°
2026-05-05 00:22 -23.42248 -67.07229 41242 ft 509 kts 122°
2026-05-05 00:23 -23.45633 -67.00469 41214 ft 510 kts 122°
2026-05-05 00:23 -23.49034 -66.93666 41216 ft 510 kts 122°
2026-05-05 00:24 -23.52418 -66.86887 41189 ft 510 kts 122°
2026-05-05 00:24 -23.55808 -66.80086 41187 ft 509 kts 122°
2026-05-05 00:25 -23.59176 -66.73319 41179 ft 508 kts 122°
2026-05-05 00:25 -23.61986 -66.67668 41165 ft 507 kts 122°
2026-05-05 00:26 -23.65334 -66.60926 41149 ft 507 kts 122°
2026-05-05 00:26 -23.68700 -66.54139 41143 ft 507 kts 122°
2026-05-05 00:27 -23.72049 -66.47375 41109 ft 507 kts 122°
2026-05-05 00:27 -23.75401 -66.40597 41148 ft 507 kts 122°
2026-05-05 00:28 -23.78762 -66.33791 41098 ft 508 kts 122°
2026-05-05 00:28 -23.82117 -66.26988 41089 ft 509 kts 122°
2026-05-05 00:29 -23.85443 -66.20233 41071 ft 509 kts 122°
2026-05-05 00:29 -23.88807 -66.13392 41073 ft 508 kts 122°
2026-05-05 00:30 -23.92149 -66.06585 41065 ft 509 kts 122°
2026-05-05 00:30 -23.95480 -65.99792 41068 ft 509 kts 122°
2026-05-05 00:31 -23.98828 -65.92956 41059 ft 510 kts 122°
2026-05-05 00:31 -24.02181 -65.86099 40818 ft 513 kts 122°
2026-05-05 00:31 -24.03870 -65.82645 40238 ft 515 kts 122°
2026-05-05 00:32 -24.05558 -65.79184 39622 ft 515 kts 122°
2026-05-05 00:32 -24.07233 -65.75749 38995 ft 515 kts 122°
2026-05-05 00:32 -24.08932 -65.72262 38215 ft 516 kts 122°
2026-05-05 00:32 -24.10617 -65.68800 37505 ft 514 kts 122°
2026-05-05 00:33 -24.12269 -65.65404 36845 ft 513 kts 122°
2026-05-05 00:33 -24.13946 -65.61955 36131 ft 513 kts 122°
2026-05-05 00:33 -24.15635 -65.58484 35356 ft 513 kts 123°
2026-05-05 00:33 -24.17302 -65.55053 34559 ft 514 kts 121°
2026-05-05 00:34 -24.18984 -65.51585 33642 ft 517 kts 123°
2026-05-05 00:34 -24.20683 -65.48084 32677 ft 516 kts 122°
2026-05-05 00:34 -24.22361 -65.44623 31755 ft 515 kts 121°
2026-05-05 00:34 -24.24024 -65.41185 31117 ft 507 kts 120°
2026-05-05 00:35 -24.25644 -65.37830 30471 ft 499 kts 119°
2026-05-05 00:35 -24.27255 -65.34493 29843 ft 490 kts 120°
2026-05-05 00:35 -24.28847 -65.31199 28935 ft 486 kts 121°
2026-05-05 00:35 -24.30409 -65.27964 28303 ft 476 kts 120°
2026-05-05 00:36 -24.31954 -65.24761 27675 ft 467 kts 119°
2026-05-05 00:36 -24.33463 -65.21635 27044 ft 460 kts 120°
2026-05-05 00:36 -24.34947 -65.18555 26409 ft 453 kts 121°
2026-05-05 00:36 -24.36675 -65.15771 25725 ft 445 kts 137°
2026-05-05 00:37 -24.39106 -65.13739 25186 ft 432 kts 153°
2026-05-05 00:37 -24.41903 -65.12562 24524 ft 423 kts 170°
2026-05-05 00:37 -24.44781 -65.12191 23951 ft 414 kts 183°
2026-05-05 00:37 -24.47598 -65.12532 23171 ft 409 kts 198°
2026-05-05 00:38 -24.50282 -65.13493 22516 ft 403 kts 201°
2026-05-05 00:38 -24.52882 -65.14557 21889 ft 397 kts 203°
2026-05-05 00:38 -24.55457 -65.15642 21239 ft 393 kts 204°
2026-05-05 00:38 -24.57995 -65.16707 20612 ft 389 kts 201°
2026-05-05 00:39 -24.60545 -65.17734 19990 ft 385 kts 203°
2026-05-05 00:39 -24.63040 -65.18758 19399 ft 381 kts 201°
2026-05-05 00:39 -24.65479 -65.19761 18834 ft 377 kts 202°
2026-05-05 00:39 -24.67932 -65.20765 18271 ft 374 kts 202°
2026-05-05 00:40 -24.70350 -65.21748 17639 ft 370 kts 202°
2026-05-05 00:40 -24.72771 -65.22729 17036 ft 366 kts 202°
2026-05-05 00:40 -24.75156 -65.23696 16398 ft 364 kts 202°
2026-05-05 00:40 -24.77497 -65.24643 15764 ft 363 kts 202°
2026-05-05 00:41 -24.79840 -65.25592 15123 ft 361 kts 202°
2026-05-05 00:41 -24.82236 -65.26563 14495 ft 360 kts 203°
2026-05-05 00:41 -24.84542 -65.27496 13903 ft 359 kts 202°
2026-05-05 00:41 -24.86885 -65.28444 13239 ft 358 kts 202°
2026-05-05 00:42 -24.89238 -65.29398 12600 ft 356 kts 201°
2026-05-05 00:42 -24.91538 -65.30331 12001 ft 354 kts 202°
2026-05-05 00:42 -24.93846 -65.31267 11410 ft 353 kts 201°
2026-05-05 00:42 -24.96138 -65.32195 11088 ft 344 kts 201°
2026-05-05 00:43 -24.98304 -65.33072 10983 ft 329 kts 201°
2026-05-05 00:43 -25.00443 -65.33939 10888 ft 315 kts 201°
2026-05-05 00:43 -25.02423 -65.34742 10800 ft 303 kts 201°
2026-05-05 00:43 -25.04376 -65.35535 10725 ft 291 kts 201°
2026-05-05 00:44 -25.06231 -65.36303 10647 ft 280 kts 205°
2026-05-05 00:44 -25.07878 -65.37407 10483 ft 273 kts 218°
2026-05-05 00:44 -25.09405 -65.38641 10214 ft 272 kts 218°
2026-05-05 00:44 -25.10942 -65.39863 9901 ft 274 kts 217°
2026-05-05 00:45 -25.12353 -65.41273 9572 ft 271 kts 238°
2026-05-05 00:45 -25.12978 -65.43137 9486 ft 256 kts 267°
2026-05-05 00:45 -25.12797 -65.44999 9414 ft 240 kts 292°
2026-05-05 00:45 -25.12017 -65.46579 9325 ft 224 kts 311°
2026-05-05 00:46 -25.10922 -65.47689 8967 ft 220 kts 327°
2026-05-05 00:46 -25.09571 -65.48593 8365 ft 230 kts 330°
2026-05-05 00:46 -25.08157 -65.49492 7871 ft 235 kts 330°
2026-05-05 00:46 -25.06795 -65.50365 7754 ft 221 kts 330°
2026-05-05 00:47 -25.05485 -65.51209 7632 ft 209 kts 330°
2026-05-05 00:47 -25.04240 -65.52016 7281 ft 210 kts 330°
2026-05-05 00:47 -25.02879 -65.52510 6919 ft 205 kts
2026-05-05 00:47 -25.01597 -65.52058 6789 ft 190 kts 18°
2026-05-05 00:48 -25.00333 -65.51795 6596 ft 181 kts
2026-05-05 00:48 -24.99114 -65.51541 6377 ft 180 kts 11°
2026-05-05 00:48 -24.97885 -65.51263 6132 ft 179 kts 10°
2026-05-05 00:48 -24.96667 -65.50999 5897 ft 173 kts 10°
2026-05-05 00:49 -24.95520 -65.50753 5672 ft 164 kts 10°
2026-05-05 00:49 -24.94437 -65.50521 5472 ft 154 kts 11°
2026-05-05 00:49 -24.93427 -65.50305 5295 ft 143 kts 11°
2026-05-05 00:49 -24.92485 -65.50103 5091 ft 133 kts 11°
2026-05-05 00:50 -24.91630 -65.49920 4952 ft 118 kts 12°
2026-05-05 00:50 -24.90817 -65.49745 4782 ft 120 kts 11°
2026-05-05 00:50 -24.90001 -65.49571 4633 ft 119 kts 11°
2026-05-05 00:50 -24.89182 -65.49395 4443 ft 118 kts 10°
2026-05-05 00:51 -24.88395 -65.49226 4296 ft 119 kts 10°
2026-05-05 00:51 -24.87583 -65.49053 4143 ft 119 kts 10°
2026-05-05 00:51 -24.86793 -65.48886 4002 ft 108 kts
2026-05-05 00:51 -24.86174 -65.48756 4017 ft 74 kts 12°
2026-05-05 00:52 -24.85784 -65.48666 4017 ft 41 kts 11°
2026-05-05 00:52 -24.85541 -65.48615 4018 ft 36 kts 11°
2026-05-05 00:52 -24.85294 -65.48565 4016 ft 35 kts 10°
2026-05-05 00:52 -24.85061 -65.48521 4017 ft 33 kts
2026-05-05 00:53 -24.84829 -65.48465 4018 ft 34 kts 14°
2026-05-05 00:53 -24.84632 -65.48351 4016 ft 31 kts 45°
2026-05-05 00:53 -24.84586 -65.48253 4016 ft 10 kts 72°
2026-05-05 00:53 -24.84564 -65.48180 4016 ft 10 kts 71°
2026-05-05 00:54 -24.84543 -65.48113 4016 ft 9 kts 70°
2026-05-05 00:54 -24.84521 -65.48048 4016 ft 10 kts 69°
2026-05-05 00:54 -24.84497 -65.47972 4016 ft 10 kts 70°
2026-05-05 00:54 -24.84509 -65.47931 4016 ft 0 kts 153°
2026-05-05 00:55 -24.84513 -65.47929 4016 ft 2 kts 156°
2026-05-05 00:55 -24.84524 -65.47929 4016 ft 0 kts 178°
2026-05-05 00:55 -24.84527 -65.47929 4016 ft 1 kts 182°
2026-05-05 00:55 -24.84547 -65.47937 4016 ft 5 kts 206°
2026-05-05 00:56 -24.84548 -65.47967 4016 ft 4 kts 323°
2026-05-05 00:56 -24.84523 -65.47952 4016 ft 4 kts 36°
2026-05-05 00:56 -24.84520 -65.47951 4016 ft 0 kts 28°